Time,TemperatureF,DewpointF,PressureIn,WindDirection,WindDirectionDegrees,WindSpeedMPH,WindSpeedGustMPH,Humidity,HourlyPrecipIn,Conditions,Clouds,dailyrainin,SoftwareType,DateUTC
2013-02-01 00:01:00,23.0,18.0,30.12,East,85,2.0,4.0,81,0.00,,,0.01,,2013-02-01 07:01:00,
2013-02-01 00:11:00,23.0,18.0,30.12,East,85,2.0,4.0,81,0.00,,,0.01,,2013-02-01 07:11:00,
2013-02-01 00:21:00,22.0,17.0,30.12,SE,136,2.0,4.0,82,0.00,,,0.01,,2013-02-01 07:21:00,
2013-02-01 00:31:00,21.0,17.0,30.11,East,86,2.0,4.0,83,0.00,,,0.01,,2013-02-01 07:31:00,
2013-02-01 00:41:00,21.0,17.0,30.11,East,86,2.0,4.0,83,0.00,,,0.01,,2013-02-01 07:41:00,
2013-02-01 00:52:00,20.0,16.0,30.12,WSW,239,2.0,5.0,85,0.00,,,0.01,,2013-02-01 07:52:00,
2013-02-01 01:01:00,21.0,17.0,30.12,North,5,1.0,7.0,84,0.00,,,0.01,,2013-02-01 08:01:00,
2013-02-01 01:11:00,21.0,17.0,30.12,North,5,1.0,7.0,84,0.00,,,0.01,,2013-02-01 08:11:00,
2013-02-01 01:21:00,20.0,16.0,30.11,ENE,78,0.0,4.0,85,0.00,,,0.01,,2013-02-01 08:21:00,
2013-02-01 01:31:00,20.0,16.0,30.10,ENE,60,4.0,5.0,86,0.00,,,0.01,,2013-02-01 08:31:00,
2013-02-01 01:42:00,20.0,16.0,30.10,ENE,60,4.0,5.0,86,0.00,,,0.01,,2013-02-01 08:42:00,
2013-02-01 01:52:00,20.0,16.0,30.10,ESE,106,4.0,6.0,85,0.00,,,0.01,,2013-02-01 08:52:00,
2013-02-01 02:01:00,20.0,16.0,30.10,South,186,1.0,6.0,85,0.00,,,0.01,,2013-02-01 09:01:00,
2013-02-01 02:11:00,20.0,16.0,30.10,South,186,1.0,6.0,85,0.00,,,0.01,,2013-02-01 09:11:00,
2013-02-01 02:21:00,20.0,16.0,30.09,SSW,205,4.0,7.0,85,0.00,,,0.01,,2013-02-01 09:21:00,
2013-02-01 02:31:00,21.0,17.0,30.09,NNE,29,3.0,7.0,84,0.00,,,0.01,,2013-02-01 09:31:00,
2013-02-01 02:41:00,21.0,17.0,30.09,NNE,29,3.0,7.0,84,0.00,,,0.01,,2013-02-01 09:41:00,
2013-02-01 02:52:00,23.0,17.0,30.09,WSW,237,0.0,7.0,79,0.00,,,0.01,,2013-02-01 09:52:00,
2013-02-01 03:01:00,22.0,17.0,30.10,SW,225,3.0,8.0,82,0.00,,,0.01,,2013-02-01 10:01:00,
2013-02-01 03:11:00,22.0,17.0,30.10,SW,225,3.0,8.0,82,0.00,,,0.01,,2013-02-01 10:11:00,
2013-02-01 03:21:00,21.0,17.0,30.10,East,98,4.0,5.0,83,0.00,,,0.01,,2013-02-01 10:21:00,
2013-02-01 03:31:00,21.0,17.0,30.09,WSW,249,3.0,8.0,83,0.00,,,0.01,,2013-02-01 10:31:00,
2013-02-01 03:42:00,21.0,17.0,30.09,WSW,249,3.0,8.0,83,0.00,,,0.01,,2013-02-01 10:42:00,
2013-02-01 03:53:00,22.0,18.0,30.09,SW,235,1.0,5.0,83,0.00,,,0.01,,2013-02-01 10:53:00,
2013-02-01 04:01:00,23.0,18.0,30.10,NNE,24,1.0,7.0,82,0.00,,,0.01,,2013-02-01 11:01:00,
2013-02-01 04:11:00,23.0,18.0,30.10,NNE,24,1.0,7.0,82,0.00,,,0.01,,2013-02-01 11:11:00,
2013-02-01 04:21:00,24.0,18.0,30.09,NNE,27,2.0,7.0,78,0.00,,,0.01,,2013-02-01 11:21:00,
2013-02-01 04:31:00,24.0,18.0,30.09,South,178,2.0,5.0,77,0.00,,,0.01,,2013-02-01 11:31:00,
2013-02-01 04:41:00,24.0,18.0,30.09,South,178,2.0,5.0,77,0.00,,,0.01,,2013-02-01 11:41:00,
2013-02-01 04:53:00,24.0,18.0,30.09,SE,134,2.0,4.0,79,0.00,,,0.01,,2013-02-01 11:53:00,
2013-02-01 05:02:00,23.0,18.0,30.09,SSE,168,2.0,3.0,80,0.00,,,0.01,,2013-02-01 12:02:00,
2013-02-01 05:12:00,23.0,18.0,30.09,SSE,168,2.0,3.0,80,0.00,,,0.01,,2013-02-01 12:12:00,
2013-02-01 05:22:00,23.0,18.0,30.09,WSW,238,1.0,4.0,80,0.00,,,0.01,,2013-02-01 12:22:00,
2013-02-01 05:32:00,23.0,18.0,30.09,East,99,2.0,5.0,80,0.00,,,0.01,,2013-02-01 12:32:00,
2013-02-01 05:42:00,23.0,18.0,30.09,East,99,2.0,5.0,80,0.00,,,0.01,,2013-02-01 12:42:00,
2013-02-01 05:52:00,23.0,18.0,30.08,NE,52,3.0,8.0,81,0.00,,,0.01,,2013-02-01 12:52:00,
2013-02-01 06:01:00,24.0,18.0,30.09,ENE,76,3.0,8.0,79,0.00,,,0.01,,2013-02-01 13:01:00,
2013-02-01 06:11:00,24.0,18.0,30.09,ENE,76,3.0,8.0,79,0.00,,,0.01,,2013-02-01 13:11:00,
2013-02-01 06:21:00,24.0,19.0,30.08,SE,126,3.0,5.0,81,0.00,,,0.01,,2013-02-01 13:21:00,
2013-02-01 06:32:00,24.0,19.0,30.08,SW,229,1.0,3.0,80,0.00,,,0.01,,2013-02-01 13:32:00,
2013-02-01 06:42:00,24.0,19.0,30.08,SW,229,1.0,3.0,80,0.00,,,0.01,,2013-02-01 13:42:00,
2013-02-01 06:53:00,23.0,18.0,30.08,SSW,213,1.0,4.0,81,0.00,,,0.01,,2013-02-01 13:53:00,
2013-02-01 07:02:00,23.0,18.0,30.09,West,273,1.0,2.0,80,0.00,,,0.01,,2013-02-01 14:02:00,
2013-02-01 07:11:00,23.0,18.0,30.09,West,273,1.0,2.0,80,0.00,,,0.01,,2013-02-01 14:11:00,
2013-02-01 07:21:00,23.0,18.0,30.09,WNW,292,1.0,2.0,80,0.00,,,0.01,,2013-02-01 14:21:00,
2013-02-01 07:31:00,23.0,19.0,30.09,West,263,3.0,4.0,83,0.00,,,0.01,,2013-02-01 14:31:00,
2013-02-01 07:42:00,23.0,19.0,30.09,West,263,3.0,4.0,83,0.00,,,0.01,,2013-02-01 14:42:00,
2013-02-01 07:52:00,26.0,20.0,30.09,West,267,6.0,10.0,78,0.00,,,0.01,,2013-02-01 14:52:00,
2013-02-01 08:01:00,28.0,20.0,30.10,North,360,0.0,5.0,73,0.00,,,0.01,,2013-02-01 15:01:00,
2013-02-01 08:11:00,27.0,20.0,30.11,East,84,6.0,7.0,73,0.00,,,0.01,,2013-02-01 15:11:00,
2013-02-01 08:21:00,27.0,20.0,30.11,East,84,6.0,7.0,73,0.00,,,0.01,,2013-02-01 15:21:00,
2013-02-01 08:32:00,26.0,20.0,30.12,East,85,2.0,3.0,77,0.00,,,0.01,,2013-02-01 15:32:00,
2013-02-01 08:42:00,26.0,20.0,30.12,East,85,2.0,3.0,77,0.00,,,0.01,,2013-02-01 15:42:00,
2013-02-01 08:52:00,25.0,20.0,30.11,SE,134,1.0,3.0,82,0.00,,,0.01,,2013-02-01 15:52:00,
2013-02-01 09:01:00,24.0,19.0,30.12,NE,37,1.0,6.0,81,0.00,,,0.01,,2013-02-01 16:01:00,
2013-02-01 09:11:00,24.0,19.0,30.12,NE,37,1.0,6.0,81,0.00,,,0.01,,2013-02-01 16:11:00,
2013-02-01 09:21:00,24.0,19.0,30.12,NE,37,1.0,6.0,81,0.00,,,0.01,,2013-02-01 16:21:00,
2013-02-01 09:32:00,25.0,20.0,30.12,WSW,254,1.0,3.0,82,0.00,,,0.01,,2013-02-01 16:32:00,
2013-02-01 09:42:00,27.0,21.0,30.12,WNW,292,6.0,9.0,79,0.00,,,0.01,,2013-02-01 16:42:00,
2013-02-01 09:52:00,27.0,21.0,30.12,WNW,292,6.0,9.0,79,0.00,,,0.01,,2013-02-01 16:52:00,
2013-02-01 10:02:00,28.0,21.0,30.13,ENE,63,4.0,11.0,76,0.00,,,0.01,,2013-02-01 17:02:00,
2013-02-01 10:11:00,28.0,21.0,30.13,ENE,63,4.0,11.0,76,0.00,,,0.01,,2013-02-01 17:11:00,
2013-02-01 10:21:00,27.0,21.0,30.13,NNW,340,2.0,4.0,79,0.00,,,0.01,,2013-02-01 17:21:00,
2013-02-01 10:31:00,28.0,22.0,30.13,SW,232,0.0,4.0,78,0.00,,,0.01,,2013-02-01 17:31:00,
2013-02-01 10:41:00,28.0,22.0,30.13,SW,232,0.0,4.0,78,0.00,,,0.01,,2013-02-01 17:41:00,
2013-02-01 10:53:00,29.0,23.0,30.13,ENE,65,2.0,4.0,77,0.00,,,0.01,,2013-02-01 17:53:00,
2013-02-01 11:02:00,30.0,23.0,30.15,WSW,240,0.0,2.0,75,0.00,,,0.01,,2013-02-01 18:02:00,
2013-02-01 11:11:00,30.0,23.0,30.15,WSW,240,0.0,2.0,75,0.00,,,0.01,,2013-02-01 18:11:00,
2013-02-01 11:22:00,30.0,23.0,30.15,WSW,240,0.0,2.0,75,0.00,,,0.01,,2013-02-01 18:22:00,
2013-02-01 11:31:00,33.0,24.0,30.15,West,260,1.0,2.0,70,0.00,,,0.00,,2013-02-01 18:31:00,
2013-02-01 11:42:00,33.0,24.0,30.15,West,260,1.0,2.0,70,0.00,,,0.00,,2013-02-01 18:42:00,
2013-02-01 11:53:00,33.0,25.0,30.16,SSE,168,3.0,6.0,71,0.00,,,0.00,,2013-02-01 18:53:00,
2013-02-01 12:02:00,32.0,24.0,30.15,East,88,0.0,5.0,71,0.00,,,0.00,,2013-02-01 19:02:00,
2013-02-01 12:11:00,32.0,24.0,30.15,East,88,0.0,5.0,71,0.00,,,0.00,,2013-02-01 19:11:00,
2013-02-01 12:21:00,32.0,25.0,30.15,SE,146,5.0,11.0,74,0.00,,,0.00,,2013-02-01 19:21:00,
2013-02-01 12:31:00,34.0,26.0,30.15,SE,141,3.0,5.0,72,0.00,,,0.00,,2013-02-01 19:31:00,
2013-02-01 12:41:00,34.0,26.0,30.15,SE,141,3.0,5.0,72,0.00,,,0.00,,2013-02-01 19:41:00,
2013-02-01 12:52:00,34.0,26.0,30.15,SE,141,3.0,5.0,72,0.00,,,0.00,,2013-02-01 19:52:00,
2013-02-01 13:01:00,37.0,27.0,30.14,SE,138,4.0,6.0,66,0.00,,,0.00,,2013-02-01 20:01:00,
2013-02-01 13:11:00,36.0,27.0,30.13,SSE,163,1.0,6.0,69,0.00,,,0.00,,2013-02-01 20:11:00,
2013-02-01 13:21:00,36.0,27.0,30.13,SSE,163,1.0,6.0,69,0.00,,,0.00,,2013-02-01 20:21:00,
2013-02-01 13:31:00,37.0,26.0,30.14,SSW,196,0.0,2.0,65,0.00,,,0.00,,2013-02-01 20:31:00,
2013-02-01 13:41:00,37.0,26.0,30.14,SSW,196,0.0,2.0,65,0.00,,,0.00,,2013-02-01 20:41:00,
2013-02-01 13:52:00,37.0,26.0,30.14,SSW,196,0.0,2.0,65,0.00,,,0.00,,2013-02-01 20:52:00,
2013-02-01 14:01:00,40.0,26.0,30.14,ESE,105,3.0,5.0,58,0.00,,,0.00,,2013-02-01 21:01:00,
2013-02-01 14:11:00,40.0,26.0,30.14,ESE,105,3.0,5.0,58,0.00,,,0.00,,2013-02-01 21:11:00,
2013-02-01 14:21:00,38.0,25.0,30.13,East,88,5.0,8.0,60,0.00,,,0.00,,2013-02-01 21:21:00,
2013-02-01 14:31:00,38.0,25.0,30.13,NE,49,3.0,5.0,59,0.00,,,0.00,,2013-02-01 21:31:00,
2013-02-01 14:41:00,38.0,25.0,30.13,NE,49,3.0,5.0,59,0.00,,,0.00,,2013-02-01 21:41:00,
2013-02-01 14:52:00,38.0,25.0,30.13,ESE,120,2.0,5.0,60,0.00,,,0.00,,2013-02-01 21:52:00,
2013-02-01 15:01:00,38.0,25.0,30.12,East,82,3.0,7.0,59,0.00,,,0.00,,2013-02-01 22:01:00,
2013-02-01 15:11:00,38.0,25.0,30.12,East,82,3.0,7.0,59,0.00,,,0.00,,2013-02-01 22:11:00,
2013-02-01 15:21:00,38.0,25.0,30.12,East,82,3.0,7.0,59,0.00,,,0.00,,2013-02-01 22:21:00,
2013-02-01 15:32:00,39.0,26.0,30.14,NE,55,1.0,5.0,59,0.00,,,0.00,,2013-02-01 22:32:00,
2013-02-01 15:41:00,39.0,26.0,30.14,NE,55,1.0,5.0,59,0.00,,,0.00,,2013-02-01 22:41:00,
2013-02-01 15:51:00,38.0,26.0,30.14,NE,38,6.0,8.0,62,0.00,,,0.00,,2013-02-01 22:51:00,
2013-02-01 16:01:00,37.0,26.0,30.14,NNE,13,3.0,8.0,63,0.00,,,0.00,,2013-02-01 23:01:00,
2013-02-01 16:11:00,37.0,26.0,30.14,NNE,13,3.0,8.0,63,0.00,,,0.00,,2013-02-01 23:11:00,
2013-02-01 16:21:00,37.0,26.0,30.14,NNE,13,3.0,8.0,63,0.00,,,0.00,,2013-02-01 23:21:00,
2013-02-01 16:31:00,36.0,26.0,30.13,North,5,1.0,4.0,66,0.00,,,0.00,,2013-02-01 23:31:00,
2013-02-01 16:41:00,36.0,26.0,30.13,North,5,1.0,4.0,66,0.00,,,0.00,,2013-02-01 23:41:00,
2013-02-01 16:52:00,36.0,26.0,30.13,North,5,1.0,4.0,66,0.00,,,0.00,,2013-02-01 23:52:00,
2013-02-01 17:01:00,33.0,23.0,30.14,South,175,1.0,5.0,66,0.00,,,0.00,,2013-02-02 00:01:00,
2013-02-01 17:21:00,33.0,23.0,30.13,SSW,196,0.0,7.0,66,0.00,,,0.00,,2013-02-02 00:21:00,
2013-02-01 17:32:00,33.0,23.0,30.13,SSW,196,0.0,7.0,66,0.00,,,0.00,,2013-02-02 00:32:00,
2013-02-01 17:41:00,33.0,23.0,30.13,SSW,196,0.0,7.0,66,0.00,,,0.00,,2013-02-02 00:41:00,
2013-02-01 17:52:00,33.0,23.0,30.13,South,181,1.0,8.0,65,0.00,,,0.00,,2013-02-02 00:52:00,
2013-02-01 18:01:00,34.0,23.0,30.12,West,276,3.0,8.0,64,0.00,,,0.00,,2013-02-02 01:01:00,
2013-02-01 18:11:00,34.0,23.0,30.12,West,276,3.0,8.0,64,0.00,,,0.00,,2013-02-02 01:11:00,
2013-02-01 18:21:00,32.0,23.0,30.13,West,266,4.0,9.0,68,0.00,,,0.00,,2013-02-02 01:21:00,
2013-02-01 18:31:00,31.0,22.0,30.13,SW,232,5.0,7.0,70,0.00,,,0.00,,2013-02-02 01:31:00,
2013-02-01 18:41:00,31.0,22.0,30.13,SW,232,5.0,7.0,70,0.00,,,0.00,,2013-02-02 01:41:00,
2013-02-01 18:52:00,32.0,22.0,30.13,West,265,3.0,7.0,65,0.00,,,0.00,,2013-02-02 01:52:00,
2013-02-01 19:01:00,37.0,18.0,30.14,ESE,112,2.0,11.0,45,0.00,,,0.00,,2013-02-02 02:01:00,
2013-02-01 19:11:00,37.0,18.0,30.14,ESE,112,2.0,11.0,45,0.00,,,0.00,,2013-02-02 02:11:00,
2013-02-01 19:21:00,37.0,17.0,30.14,WSW,246,6.0,14.0,44,0.00,,,0.00,,2013-02-02 02:21:00,
2013-02-01 19:31:00,38.0,16.0,30.16,West,268,8.0,21.0,40,0.00,,,0.00,,2013-02-02 02:31:00,
2013-02-01 19:41:00,38.0,16.0,30.16,West,268,8.0,21.0,40,0.00,,,0.00,,2013-02-02 02:41:00,
2013-02-01 19:52:00,35.0,21.0,30.17,West,275,5.0,17.0,56,0.00,,,0.00,,2013-02-02 02:52:00,
2013-02-01 20:02:00,33.0,20.0,30.18,South,190,3.0,6.0,59,0.00,,,0.00,,2013-02-02 03:02:00,
2013-02-01 20:11:00,33.0,20.0,30.18,South,190,3.0,6.0,59,0.00,,,0.00,,2013-02-02 03:11:00,
2013-02-01 20:21:00,34.0,21.0,30.19,ENE,77,2.0,4.0,58,0.00,,,0.00,,2013-02-02 03:21:00,
2013-02-01 20:32:00,32.0,20.0,30.19,South,170,2.0,4.0,61,0.00,,,0.00,,2013-02-02 03:32:00,
2013-02-01 20:42:00,31.0,20.0,30.20,South,173,4.0,5.0,64,0.00,,,0.00,,2013-02-02 03:42:00,
2013-02-01 20:51:00,31.0,20.0,30.20,South,173,4.0,5.0,64,0.00,,,0.00,,2013-02-02 03:51:00,
2013-02-01 21:01:00,30.0,21.0,30.21,SSW,197,3.0,5.0,68,0.00,,,0.00,,2013-02-02 04:01:00,
2013-02-01 21:11:00,30.0,21.0,30.21,SSW,197,3.0,5.0,68,0.00,,,0.00,,2013-02-02 04:11:00,
2013-02-01 21:21:00,28.0,20.0,30.21,West,273,4.0,5.0,70,0.00,,,0.00,,2013-02-02 04:21:00,
2013-02-01 21:32:00,29.0,20.0,30.22,SSE,167,3.0,5.0,70,0.00,,,0.00,,2013-02-02 04:32:00,
2013-02-01 21:41:00,29.0,20.0,30.22,SSE,167,3.0,5.0,70,0.00,,,0.00,,2013-02-02 04:41:00,
2013-02-01 21:51:00,27.0,19.0,30.22,SSE,148,1.0,4.0,72,0.00,,,0.00,,2013-02-02 04:51:00,
2013-02-01 22:02:00,26.0,19.0,30.23,South,190,0.0,4.0,75,0.00,,,0.00,,2013-02-02 05:02:00,
2013-02-01 22:11:00,26.0,19.0,30.23,South,190,0.0,4.0,75,0.00,,,0.00,,2013-02-02 05:11:00,
2013-02-01 22:22:00,27.0,19.0,30.23,NW,313,2.0,4.0,72,0.00,,,0.00,,2013-02-02 05:22:00,
2013-02-01 22:33:00,28.0,20.0,30.23,West,279,6.0,9.0,70,0.00,,,0.00,,2013-02-02 05:33:00,
2013-02-01 22:41:00,28.0,20.0,30.23,West,279,6.0,9.0,70,0.00,,,0.00,,2013-02-02 05:41:00,
2013-02-01 22:52:00,29.0,19.0,30.24,WSW,258,5.0,10.0,66,0.00,,,0.00,,2013-02-02 05:52:00,
2013-02-01 23:02:00,28.0,18.0,30.24,West,275,4.0,8.0,66,0.00,,,0.00,,2013-02-02 06:02:00,
2013-02-01 23:12:00,28.0,18.0,30.24,West,275,4.0,8.0,66,0.00,,,0.00,,2013-02-02 06:12:00,
2013-02-01 23:21:00,28.0,18.0,30.25,WNW,282,6.0,7.0,67,0.00,,,0.00,,2013-02-02 06:21:00,
2013-02-01 23:31:00,27.0,18.0,30.25,WSW,257,2.0,6.0,69,0.00,,,0.00,,2013-02-02 06:31:00,
2013-02-01 23:41:00,27.0,18.0,30.25,WSW,257,2.0,6.0,69,0.00,,,0.00,,2013-02-02 06:41:00,
2013-02-01 23:51:00,27.0,18.0,30.25,West,269,8.0,9.0,69,0.00,,,0.00,,2013-02-02 06:51:00,